Volver al catálogo

ZK-1A R/B

ActivoSSO
NORAD 64093·ROCKET BODY·🇨🇳 China

Lanzado May 21, 2025 desde Jiuquan Satellite Launch Center

Loading…

Próximos Pases (próximas 24 horas)

TLE

ActualizadoSource: Space-Track

Época: Sep 14, 2026, 21:24 UTC

1 64093U 25108G   26257.89180832  .00043571  00000-0  44625-3 0  9993
2 64093  97.4256 352.4245 0058329  65.4385 295.2936 15.62668923 74454

Sigue ZK-1A R/B en tiempo real con AllMySat

Download on the App Store